Date,TemperatureHighF,TemperatureAvgF,TemperatureLowF,DewpointHighF,DewpointAvgF,DewpointLowF,HumidityHigh,HumidityAvg,HumidityLow,PressureMaxIn,PressureMinIn,WindSpeedMaxMPH,WindSpeedAvgMPH,GustSpeedMaxMPH,PrecipitationSumIn
2013-1-1,107,87,69,66,53,42,74,38,15,29.32,28.97,18,3,18,0.00
2013-1-2,90,76,68,63,57,49,67,53,37,29.50,29.12,12,2,12,0.00
2013-1-3,87,74,67,60,57,55,68,56,39,29.53,29.35,11,3,11,0.00
2013-1-4,98,79,62,63,56,49,80,51,20,29.50,29.18,15,3,15,0.00
2013-1-5,103,83,65,65,58,49,75,47,18,29.44,29.26,12,2,12,0.00
2013-1-6,98,80,67,67,60,57,77,53,27,29.59,29.35,14,3,14,0.00
2013-1-7,96,81,70,67,61,58,73,53,29,29.62,29.32,14,3,14,0.00
2013-1-8,108,89,67,62,53,42,78,37,14,29.32,28.73,20,5,20,0.00
2013-1-9,94,83,69,60,52,42,58,36,20,29.12,28.64,25,5,25,0.00
2013-1-10,78,73,69,58,57,53,67,57,51,29.26,29.12,12,3,12,0.00
2013-1-11,106,85,66,66,60,47,77,49,15,29.26,28.88,12,3,12,0.00
2013-1-12,111,88,72,69,60,46,74,46,13,29.26,28.97,23,3,23,0.13
2013-1-13,92,78,70,68,64,60,77,64,42,29.32,29.00,10,2,10,0.04
2013-1-14,78,70,64,63,55,45,81,61,36,29.56,29.26,12,2,12,0.04
2013-1-15,88,73,63,60,55,51,76,56,31,29.56,29.32,15,4,15,0.00
2013-1-16,101,80,62,65,58,54,80,52,25,29.44,29.12,16,2,16,0.00
2013-1-17,103,85,71,68,63,56,73,52,26,29.35,28.94,13,3,13,0.00
2013-1-18,115,92,72,73,60,48,76,42,13,29.09,28.70,16,3,16,0.00
2013-1-19,81,74,68,61,58,56,77,58,43,29.44,29.09,8,2,9,0.08
2013-1-20,72,69,68,68,64,59,90,83,74,29.50,29.35,6,1,6,0.37
2013-1-21,82,74,68,72,66,63,91,76,58,29.44,29.24,14,2,14,0.04
2013-1-22,98,78,68,71,65,60,88,67,31,29.29,29.03,13,2,13,0.46
2013-1-23,80,73,68,69,64,61,87,75,64,29.47,29.26,7,1,7,0.00
2013-1-24,84,74,69,71,65,61,80,72,57,29.47,29.29,9,2,9,0.00
2013-1-25,94,80,69,71,67,63,88,66,39,29.35,29.12,14,3,14,0.00
2013-1-26,96,80,70,71,66,61,85,64,35,29.32,29.12,22,6,22,0.00
2013-1-27,75,73,70,70,68,66,92,84,76,29.24,29.12,13,2,13,2.84
2013-1-28,71,70,68,69,68,66,96,94,91,29.20,29.03,23,7,23,4.93
2013-1-29,85,74,68,74,68,62,96,81,58,29.26,28.94,10,2,10,1.43
2013-1-30,84,73,68,70,65,63,89,77,59,29.41,29.26,10,2,10,0.00
2013-1-31,95,81,71,72,67,59,84,65,33,29.38,29.03,12,2,12,0.00
2013-2-1,90,74,65,74,66,60,87,77,46,29.15,28.97,15,2,15,0.99
2013-2-2,70,64,60,61,57,52,86,79,65,29.38,29.15,10,2,10,0.59
2013-2-3,79,66,56,58,54,51,87,66,43,29.50,29.35,10,2,10,0.00
2013-2-4,83,71,60,64,57,54,85,65,43,29.65,29.50,11,2,11,0.00
2013-2-8,84,79,71,62,59,55,64,51,39,29.47,29.32,8,2,5,0.00
2013-2-9,97,80,73,66,62,44,65,55,33,29.44,29.18,6,2,6,0.00
2013-2-10,102,82,69,72,64,58,80,59,25,29.56,29.18,10,2,10,0.25
2013-2-11,73,70,68,66,63,62,84,80,75,29.53,29.44,7,1,7,0.04
2013-2-12,74,69,67,69,64,61,88,84,77,29.62,29.47,8,1,8,0.17
2013-2-13,77,70,64,65,60,54,90,74,51,29.68,29.53,10,2,10,0.00
2013-2-14,85,70,60,65,58,55,88,67,42,29.65,29.47,13,2,13,0.00
2013-2-15,80,70,65,67,61,57,86,72,54,29.62,29.47,9,2,9,0.00
2013-2-16,86,72,63,66,59,56,86,67,44,29.62,29.47,10,2,10,0.00
2013-2-17,88,73,66,68,59,54,88,65,34,29.62,29.47,13,2,13,0.00
2013-2-18,87,72,60,65,58,54,85,65,37,29.59,29.35,14,2,14,0.00
2013-2-19,91,75,65,68,62,56,87,65,34,29.44,29.24,12,2,12,0.00
2013-2-20,88,74,66,70,63,58,87,69,42,29.47,29.35,10,2,10,0.04
2013-2-21,84,73,68,71,65,61,90,78,53,29.50,29.38,15,2,15,0.50
2013-2-22,77,69,66,69,64,61,90,83,66,29.50,29.35,17,2,17,0.59
2013-2-23,74,70,66,72,67,62,95,91,86,29.44,29.09,17,4,17,3.43
2013-2-24,93,79,69,75,70,67,95,76,47,29.35,29.18,24,3,24,0.05
2013-2-25,91,79,70,74,69,66,91,74,53,29.47,29.29,10,3,10,0.00
2013-2-26,86,77,70,70,66,63,83,71,54,29.47,29.32,19,5,19,0.00
2013-2-27,92,78,67,69,64,60,86,65,41,29.47,29.18,8,2,8,0.00
2013-2-28,88,75,67,71,65,60,87,72,49,29.26,29.06,10,1,10,0.46
2013-3-1,68,65,63,64,61,59,89,86,80,29.50,29.24,10,2,10,1.94
2013-3-2,67,64,62,63,60,58,91,88,86,29.59,29.47,10,2,9,1.17
2013-3-3,78,70,65,67,62,58,93,77,56,29.56,29.47,14,2,14,0.21
2013-3-4,81,70,63,66,61,58,90,74,53,29.62,29.47,11,2,11,0.00
2013-3-5,83,71,63,66,60,58,89,71,49,29.62,29.47,13,2,13,0.00
2013-3-6,85,73,64,67,60,56,90,67,41,29.59,29.41,10,2,10,0.00
2013-3-7,88,74,62,67,59,55,88,64,38,29.59,29.35,10,2,10,0.00
2013-3-8,86,72,62,67,59,56,87,66,41,29.65,29.47,10,2,10,0.00
2013-3-9,88,75,68,68,61,57,82,64,38,29.59,29.41,10,2,10,0.00
2013-3-10,89,75,64,67,61,58,86,64,39,29.59,29.35,8,2,8,0.00
2013-3-11,85,73,64,68,61,58,86,69,48,29.59,29.47,13,2,13,0.00
2013-3-12,86,72,64,68,60,57,87,67,42,29.59,29.38,12,2,12,0.00
2013-3-13,88,73,61,66,58,55,86,63,35,29.47,29.20,9,2,9,0.00
2013-3-14,84,72,62,68,62,56,85,71,54,29.35,29.18,6,1,6,0.00
2013-3-15,74,72,70,70,65,63,87,80,76,29.47,29.35,7,0,7,0.04
2013-3-16,89,77,68,70,66,64,90,72,46,29.44,29.06,7,1,7,0.05
2013-3-17,81,72,64,65,54,44,81,56,32,29.50,29.15,8,2,8,0.00
2013-3-18,81,67,57,55,50,47,72,57,39,29.65,29.50,6,1,6,0.00
2013-3-19,83,66,55,59,52,49,84,63,36,29.74,29.59,8,1,8,0.00
2013-3-20,83,68,57,64,56,51,84,65,40,29.74,29.53,12,2,12,0.00
2013-3-21,87,71,58,64,56,52,85,62,35,29.62,29.29,10,1,10,0.00
2013-3-22,90,75,32,100,62,57,82,58,41,29.91,29.29,14,4,14,0.00
2013-3-23,91,79,70,67,62,56,72,56,38,29.44,29.26,16,2,16,0.00
2013-3-24,90,77,68,70,62,56,84,63,34,29.47,29.20,10,1,10,0.00
2013-3-25,89,74,61,64,56,52,83,58,29,29.53,29.35,7,1,7,0.00
2013-3-26,86,75,66,68,63,56,81,68,52,29.56,29.35,6,1,6,0.00
2013-3-27,91,77,66,71,64,60,88,66,39,29.56,29.32,9,1,9,0.00
2013-3-28,92,78,66,70,63,59,87,63,35,29.47,29.24,13,2,13,0.08
2013-3-29,80,69,60,66,55,50,84,63,40,29.56,29.32,7,1,7,0.04
2013-3-30,80,68,57,60,55,51,83,65,43,29.53,29.26,6,1,6,0.00
2013-3-31,76,67,62,60,56,52,85,70,46,29.44,29.24,5,0,5,0.00
2013-4-1,82,69,61,63,57,47,84,67,41,29.50,29.35,7,1,7,0.00
2013-4-2,83,69,59,62,53,46,85,61,31,29.47,29.29,8,1,8,0.00
2013-4-3,69,64,59,61,57,52,83,78,70,29.71,29.47,6,1,6,0.04
2013-4-4,68,64,60,64,59,55,90,85,78,29.85,29.71,9,1,9,0.29
2013-4-5,75,66,61,64,57,50,91,75,47,29.91,29.77,11,1,11,0.00
2013-4-6,75,64,57,62,56,52,89,77,51,29.85,29.65,6,1,6,0.00
2013-4-7,78,64,60,59,58,44,90,80,48,29.74,29.56,6,0,6,0.00
2013-4-8,79,66,60,63,57,54,89,74,45,29.74,29.62,7,1,7,0.00
2013-4-9,77,65,59,63,59,55,89,81,57,29.83,29.65,6,1,6,0.08
2013-4-10,77,66,59,64,57,53,91,75,49,29.74,29.56,7,1,7,0.00
2013-4-11,80,66,56,62,53,48,89,66,36,29.71,29.56,5,1,5,0.00
2013-4-12,79,67,56,63,55,51,88,68,45,29.80,29.59,12,2,12,0.00
2013-4-13,78,67,56,62,56,50,86,69,47,29.68,29.38,10,1,10,0.00
2013-4-14,83,69,59,64,55,49,88,65,32,29.44,29.24,6,1,6,0.00
2013-4-15,86,68,57,64,54,50,85,64,32,29.35,29.12,10,1,10,0.00
2013-4-16,71,66,64,63,58,54,86,76,67,29.47,29.26,7,1,7,0.21
2013-4-17,76,66,59,61,57,54,89,73,53,29.50,29.35,6,1,6,0.00
2013-4-18,76,66,59,63,56,52,89,72,45,29.44,29.29,7,1,7,0.00
2013-4-19,72,62,54,55,48,41,87,63,39,29.44,29.35,14,1,14,0.00
2013-4-20,61,58,53,56,50,40,86,76,58,29.47,29.32,6,1,6,1.29
2013-4-21,70,60,50,55,50,46,89,71,47,29.50,29.32,8,1,8,0.00
2013-4-22,73,62,55,59,52,49,90,73,44,29.35,29.15,9,1,9,0.00
2013-4-23,75,61,49,56,48,44,87,65,40,29.47,29.29,10,1,10,0.00
2013-4-24,73,60,49,55,47,43,85,65,41,29.62,29.41,6,1,6,0.00
2013-4-25,72,58,49,54,46,42,85,65,40,29.71,29.53,6,1,6,0.00
2013-4-26,76,60,46,56,46,40,85,64,40,29.74,29.53,6,1,6,0.00
2013-4-27,77,61,49,56,48,43,84,64,39,29.71,29.47,2,0,0,0.00
2013-4-28,80,63,50,59,50,44,84,64,35,29.62,29.41,2,0,0,0.00
2013-4-29,81,64,50,56,50,44,82,63,36,29.71,29.54,3,0,0,0.00
2013-4-30,75,66,58,64,59,51,89,78,62,29.76,29.59,2,0,0,0.00
2013-5-1,82,68,59,64,57,53,91,70,37,29.62,29.35,6,1,0,0.00
2013-5-2,68,62,55,59,47,42,78,60,40,29.83,29.49,3,1,0,0.00
2013-5-3,71,58,47,52,46,41,84,68,45,29.85,29.57,3,0,0,0.00
2013-5-4,73,62,50,57,50,44,84,66,43,29.68,29.47,8,1,8,0.00
2013-5-5,68,60,52,51,46,43,78,62,48,29.77,29.59,7,1,7,0.00
2013-5-6,67,55,45,52,45,38,84,69,51,29.85,29.71,8,1,8,0.00
2013-5-7,68,60,52,57,52,46,85,76,63,29.88,29.77,5,1,5,0.00
2013-5-8,54,54,53,51,50,49,90,88,84,29.94,29.88,2,0,2,0.00
2013-5-11,69,67,63,60,59,58,86,74,70,29.91,29.77,5,1,5,0.00
2013-5-12,60,57,54,57,54,51,91,88,82,29.85,29.80,4,0,3,0.00
2013-5-13,70,61,52,60,53,49,91,78,56,29.68,29.38,8,0,8,0.00
2013-5-14,59,59,58,55,55,55,88,87,86,29.41,29.35,4,0,4,0.00
2013-5-15,68,55,45,52,46,41,89,73,44,29.50,29.29,6,1,11,0.17
2013-5-16,68,58,50,52,45,42,83,64,42,29.41,29.24,7,1,12,0.00
2013-5-17,67,55,46,47,40,34,81,59,35,29.47,29.29,7,1,15,0.00
2013-5-18,67,57,42,47,38,34,76,50,36,29.53,29.35,10,2,10,0.00
2013-5-19,64,51,41,46,36,33,78,58,37,29.59,29.44,12,2,12,0.00
2013-5-20,66,51,40,45,39,32,79,65,43,29.65,29.47,7,1,7,0.00
2013-5-21,69,54,43,51,42,37,84,65,39,29.59,29.38,13,1,13,0.00
2013-5-22,58,52,46,51,46,40,85,78,69,29.50,29.29,5,0,5,0.63
2013-5-23,61,55,52,58,52,48,91,89,85,29.50,29.29,6,1,6,1.09
2013-5-24,63,57,54,56,52,50,92,85,70,29.62,29.47,8,2,9,0.12
2013-5-25,66,56,50,55,50,46,92,81,58,29.77,29.65,6,1,6,0.00
2013-5-26,66,52,43,53,46,39,90,78,54,29.85,29.68,5,0,5,0.00
2013-5-27,56,50,44,54,46,41,93,88,83,29.97,29.80,6,1,6,0.04
2013-5-28,64,58,53,60,54,51,96,90,76,30.03,29.88,7,1,7,0.04
2013-5-29,68,58,53,60,54,50,95,87,71,29.97,29.83,5,1,5,0.00
2013-5-30,68,56,48,59,51,45,93,83,63,29.94,29.77,7,0,7,0.00
2013-5-31,71,56,47,59,50,43,93,80,57,29.91,29.71,5,0,5,0.00
2013-6-1,67,58,51,60,52,48,94,80,62,29.77,29.41,13,2,13,0.04
2013-6-2,60,57,53,57,53,48,92,86,78,29.44,29.18,13,2,13,0.72
2013-6-3,63,53,45,49,44,40,88,71,50,29.68,29.50,6,1,6,0.00
2013-6-4,64,51,41,52,44,36,87,78,63,29.88,29.71,7,1,7,0.00
2013-6-5,64,53,46,57,48,42,93,85,70,29.85,29.68,4,0,4,0.00
2013-6-6,63,56,50,58,53,47,93,90,84,29.80,29.62,4,0,4,0.00
2013-6-7,70,62,56,60,56,50,95,84,68,29.74,29.53,15,2,15,0.00
2013-6-8,62,55,48,56,51,44,94,85,74,29.97,29.77,6,0,6,0.00
2013-6-9,65,55,50,56,50,47,93,84,68,29.91,29.68,6,1,6,0.00
2013-6-10,65,55,49,59,51,45,92,87,73,29.71,29.53,6,0,6,0.04
2013-6-11,66,54,47,56,49,44,94,83,66,29.71,29.50,6,1,6,0.00
2013-6-12,58,53,49,57,51,46,97,94,88,29.59,29.29,6,0,6,0.59
2013-6-13,64,56,50,58,50,48,97,84,64,29.32,29.18,13,2,13,0.00
2013-6-14,63,56,50,52,46,42,91,72,56,29.26,29.12,17,4,17,0.00
2013-6-15,65,57,50,50,46,42,79,67,48,29.38,29.24,8,1,8,0.00
2013-6-16,61,52,44,47,42,37,83,70,52,29.53,29.35,9,1,9,0.00
2013-6-17,61,49,38,48,41,33,86,75,61,29.41,29.26,6,1,6,0.00
2013-6-18,61,50,41,48,42,36,88,75,52,29.53,29.35,5,1,5,0.00
2013-6-19,60,53,47,48,44,40,86,73,54,29.74,29.53,12,1,12,0.00
2013-6-20,59,49,42,47,42,37,86,78,64,29.80,29.62,6,1,6,0.00
2013-6-21,59,49,44,50,44,40,90,81,66,29.71,29.59,7,0,7,0.00
2013-6-22,59,49,42,50,43,38,89,79,64,29.83,29.71,7,1,7,0.00
2013-6-23,59,54,51,53,49,46,89,84,75,29.88,29.74,5,1,5,0.21
2013-6-24,61,54,47,52,48,40,91,80,62,29.74,29.47,6,1,6,0.00
2013-6-25,59,49,42,51,44,38,90,83,71,29.56,29.47,6,0,6,0.00
2013-6-26,63,56,50,59,53,48,95,87,76,29.65,29.53,8,2,9,0.08
2013-6-27,60,56,54,58,55,52,96,94,91,29.71,29.59,7,1,7,0.21
2013-6-28,60,57,55,58,55,54,96,95,92,29.74,29.65,10,1,10,0.29
2013-6-29,61,57,54,58,55,53,96,92,85,29.74,29.62,5,0,5,0.59
2013-6-30,60,57,54,55,53,51,93,88,80,29.77,29.65,5,0,5,0.00
2013-7-1,63,56,51,56,51,47,90,84,73,29.74,29.65,6,1,6,0.00
2013-7-2,62,53,48,53,49,45,92,85,71,29.80,29.62,6,1,6,0.00
2013-7-3,63,52,45,54,47,42,92,83,64,29.80,29.65,5,1,5,0.04
2013-7-4,68,54,42,54,46,38,95,77,55,29.68,29.38,15,2,15,0.00
2013-7-5,67,56,48,52,44,34,93,67,41,29.56,29.35,13,2,13,0.00
2013-7-6,61,48,38,42,36,31,83,65,44,29.74,29.59,13,2,13,0.00
2013-7-7,61,46,36,44,36,31,85,68,40,29.94,29.77,6,1,6,0.00
2013-7-8,61,46,36,44,37,30,85,70,44,30.06,29.94,6,1,6,0.00
2013-7-9,58,47,39,50,42,33,90,83,68,30.15,30.00,6,0,6,0.04
2013-7-10,55,50,45,50,46,43,94,89,82,30.09,29.94,5,0,5,0.20
2013-7-11,62,52,47,53,48,44,94,85,68,30.12,29.94,6,1,6,0.00
2013-7-12,63,53,47,55,49,45,94,87,71,30.03,29.83,7,0,7,0.00
2013-7-13,64,54,48,55,49,45,94,84,67,29.91,29.80,6,1,6,0.00
2013-7-14,65,54,48,55,49,45,93,84,65,29.91,29.77,6,1,6,0.00
2013-7-15,65,56,52,59,52,49,96,87,70,29.80,29.65,6,0,6,0.00
2013-7-16,68,59,53,60,54,51,96,85,65,29.80,29.68,8,1,8,0.00
2013-7-17,70,59,52,60,53,49,95,82,61,29.80,29.62,6,0,6,0.00
2013-7-18,71,58,49,59,52,46,94,83,56,29.77,29.59,7,0,7,0.00
2013-7-19,67,58,52,60,53,50,95,85,59,29.56,29.35,15,2,15,0.12
2013-7-20,68,60,56,56,49,36,92,69,41,29.41,29.18,17,4,17,0.00
2013-7-21,61,51,42,40,34,31,75,53,36,29.59,29.35,14,3,14,0.00
2013-7-22,62,48,38,43,34,30,80,60,37,29.68,29.53,15,2,15,0.00
2013-7-23,62,49,37,44,36,30,81,61,41,29.71,29.56,12,2,12,0.00
2013-7-24,62,51,42,46,40,34,82,67,49,29.91,29.74,8,1,8,0.00
2013-7-25,62,48,37,46,39,32,86,71,50,29.97,29.83,6,1,6,0.00
2013-7-26,66,50,39,48,40,34,86,71,43,29.88,29.71,11,1,11,0.00
2013-7-27,64,50,37,47,40,32,85,69,48,30.00,29.83,6,1,6,0.00
2013-7-28,65,52,44,53,45,38,87,77,56,29.94,29.77,5,0,5,0.00
2013-7-29,69,54,43,53,44,38,89,71,44,29.85,29.62,11,1,11,0.00
2013-7-30,68,56,46,52,47,41,86,72,50,29.68,29.53,7,1,7,0.00
2013-7-31,61,56,50,56,51,46,88,83,76,29.77,29.62,6,1,6,0.00
2013-8-1,65,53,46,51,45,42,92,76,50,29.77,29.59,6,1,6,0.04
2013-8-2,66,53,44,54,43,39,89,71,42,29.68,29.41,12,1,12,0.00
2013-8-3,66,53,43,48,39,36,85,62,36,29.59,29.35,10,2,10,0.00
2013-8-4,66,54,43,44,38,32,76,56,35,29.56,29.38,17,3,17,0.00
2013-8-5,66,52,40,46,38,33,79,59,39,29.62,29.44,11,2,11,0.00
2013-8-6,71,56,41,45,37,34,81,54,32,29.56,29.26,23,4,23,0.00
2013-8-7,68,57,50,50,44,37,83,64,45,29.47,29.20,7,1,7,0.29
2013-8-8,58,53,48,48,43,39,88,70,53,29.50,29.18,11,2,11,0.04
2013-8-9,63,52,41,48,41,35,86,66,46,29.65,29.41,8,1,8,0.00
2013-8-10,72,58,46,50,42,39,78,58,35,29.56,29.35,9,2,9,0.00
2013-8-11,71,55,41,49,42,34,82,64,39,29.62,29.35,8,1,8,0.00
2013-8-12,76,60,46,55,42,38,85,57,29,29.38,29.06,24,4,24,0.00
2013-8-13,70,54,40,43,34,29,72,48,28,29.53,29.35,15,2,15,0.00
2013-8-14,72,56,45,46,36,32,74,51,26,29.53,29.24,15,2,15,0.00
2013-8-15,66,56,47,36,31,27,52,40,27,29.71,29.32,13,3,13,0.00
2013-8-16,68,52,37,42,34,28,74,53,28,29.80,29.47,9,1,9,0.00
2013-8-17,72,58,45,52,44,36,82,61,43,29.44,29.18,15,3,15,0.00
2013-8-18,72,56,42,46,35,31,71,48,29,29.59,29.35,12,2,12,0.00
2013-8-19,71,60,47,39,33,29,59,37,27,29.44,29.12,21,5,21,0.00
2013-8-20,64,53,43,34,27,21,50,38,28,29.53,29.35,15,4,15,0.00
2013-8-21,64,50,36,37,29,23,65,46,33,29.59,29.41,9,2,9,0.00
2013-8-22,63,51,37,41,32,28,73,51,35,29.56,29.32,12,3,12,0.00
2013-8-23,68,58,48,41,36,33,59,45,34,29.47,29.29,18,6,18,0.00
2013-8-24,74,60,47,50,41,37,74,53,33,29.71,29.47,8,2,8,0.00
2013-8-25,76,59,44,52,42,37,81,56,31,29.83,29.56,12,2,12,0.00
2013-8-26,71,57,42,49,40,34,77,56,34,29.80,29.56,6,1,6,0.00
2013-8-27,72,58,46,50,42,39,80,57,34,29.74,29.47,8,1,8,0.00
2013-8-28,74,59,44,52,41,36,82,56,31,29.71,29.53,9,2,9,0.00
2013-8-29,74,60,46,54,44,39,80,59,35,29.80,29.50,14,2,14,0.00
2013-8-30,84,67,55,58,48,39,83,54,27,29.56,29.29,15,3,15,0.00
2013-8-31,77,63,51,51,42,38,70,49,28,29.71,29.50,9,1,9,0.00
2013-9-1,76,61,47,52,44,39,76,55,33,29.88,29.71,13,2,13,0.00
2013-9-2,75,62,49,57,45,41,82,58,33,29.97,29.83,6,2,6,0.00
2013-9-3,76,62,48,55,48,41,82,62,39,30.06,29.88,9,2,9,0.00
2013-9-4,77,63,50,56,47,42,85,61,33,30.06,29.77,8,2,9,0.00
2013-9-5,83,65,48,56,46,41,82,54,28,29.91,29.65,9,1,9,0.00
2013-9-6,84,68,52,56,48,42,74,52,31,29.83,29.59,5,2,5,0.00
2013-9-7,87,70,56,59,47,36,80,50,20,29.74,29.47,12,2,12,0.00
2013-9-8,75,66,61,59,53,42,73,63,51,29.74,29.59,8,2,9,0.00
2013-9-9,82,70,62,63,55,52,81,62,41,29.68,29.35,7,1,7,0.00
2013-9-10,88,76,60,52,42,33,75,34,19,29.32,28.94,23,7,23,0.00
2013-9-11,82,68,54,42,35,27,50,31,18,29.41,29.18,12,3,12,0.00
2013-9-12,61,57,53,34,33,32,48,41,35,29.44,29.41,2,0,2,0.00
2013-9-13,69,59,54,44,40,34,55,50,36,29.68,29.41,6,2,10,0.00
2013-9-14,79,66,58,57,49,43,83,55,33,29.50,29.15,13,3,13,0.00
2013-9-15,75,62,52,56,48,44,82,62,40,29.59,29.38,10,2,10,0.00
2013-9-16,63,58,53,57,51,46,88,78,70,29.53,29.24,8,2,8,0.17
2013-9-27,62,62,62,37,37,37,39,39,39,29.44,29.44,4,4,4,0.00
2013-9-28,90,73,49,54,33,18,71,29,10,29.44,29.06,24,5,24,0.00
2013-9-29,84,68,53,43,36,27,50,33,20,29.53,29.29,11,3,11,0.00
2013-9-30,90,70,50,54,40,32,73,41,15,29.56,29.24,15,2,15,0.00
2013-10-1,93,70,55,53,46,37,56,43,24,29.32,29.00,31,6,31,0.00
2013-10-2,82,67,50,46,37,30,63,36,21,29.50,29.18,17,3,17,0.00
2013-10-3,75,61,52,47,40,34,72,48,29,29.59,29.18,14,3,14,0.21
2013-10-4,76,60,44,49,40,37,82,53,28,29.71,29.50,10,2,10,0.00
2013-10-5,87,68,47,55,41,32,80,46,16,29.62,29.18,12,2,12,0.00
2013-10-6,95,72,51,53,37,26,65,33,12,29.38,28.97,13,3,13,0.00
2013-10-7,85,67,54,47,41,33,54,39,22,29.38,29.09,10,3,10,0.00
2013-10-8,82,67,54,53,43,35,70,46,21,29.56,29.32,10,2,10,0.00
2013-10-9,88,68,49,54,42,33,75,44,19,29.65,29.29,14,2,14,0.00
2013-10-10,98,76,54,46,36,24,54,29,9,29.41,28.97,23,5,23,0.00
2013-10-11,83,72,64,57,48,32,64,43,21,29.44,29.03,10,3,10,0.00
2013-10-12,93,73,54,57,46,34,77,45,17,29.50,29.06,12,2,12,0.00
2013-10-13,98,82,62,55,43,24,69,32,8,29.15,28.73,28,7,28,0.04
2013-10-14,79,66,57,52,40,32,59,40,20,29.59,29.09,11,3,11,0.04
2013-10-15,80,63,45,43,35,28,67,39,20,29.71,29.44,9,2,9,0.00
2013-10-16,88,68,46,45,32,24,56,31,13,29.62,29.24,15,3,15,0.00
2013-10-17,95,75,54,48,36,23,49,27,9,29.38,28.97,28,6,28,0.00
2013-10-18,74,65,58,43,33,22,49,31,23,29.80,29.44,10,3,10,0.00
2013-10-19,84,66,49,54,44,38,70,49,22,29.85,29.56,11,3,11,0.00
2013-10-20,93,75,60,60,50,38,76,47,19,29.71,29.29,9,2,9,0.00
2013-10-21,99,79,60,60,48,40,73,40,16,29.50,29.18,13,2,13,0.00
2013-10-22,96,79,65,62,55,48,63,45,28,29.41,29.18,10,2,10,0.00
2013-10-23,99,83,72,58,48,28,59,33,13,29.24,28.94,25,6,25,0.00
2013-10-24,87,73,61,45,35,20,47,27,12,29.56,29.24,20,4,20,0.00
2013-10-25,82,65,48,42,31,21,46,30,13,29.71,29.41,10,2,10,0.00
2013-10-26,81,66,50,47,40,35,67,44,20,29.62,29.41,10,2,10,0.00
2013-10-27,85,68,53,56,46,38,74,49,23,29.71,29.41,14,2,14,0.00
2013-10-28,86,70,57,58,49,42,74,51,23,29.62,29.24,9,2,9,0.00
2013-10-29,93,68,56,60,52,44,76,60,21,29.44,29.00,20,3,20,0.84
2013-10-30,78,66,57,54,49,43,80,57,32,29.56,29.44,9,2,9,0.04
2013-10-31,85,68,52,56,48,42,82,54,26,29.68,29.41,12,2,12,0.00
2013-11-1,86,70,58,58,52,49,75,55,31,29.71,29.44,10,2,10,0.00
2013-11-2,96,76,56,63,47,33,81,45,14,29.59,29.18,16,2,16,0.00
2013-11-3,97,77,60,54,43,24,59,34,10,29.50,29.03,24,4,24,0.00
2013-11-4,80,67,59,45,39,32,56,37,20,29.77,29.47,12,2,12,0.00
2013-11-5,70,63,57,46,42,38,62,47,39,29.83,29.71,7,2,7,0.00
2013-11-6,86,66,48,54,46,40,76,51,23,29.77,29.41,15,3,15,0.00
2013-11-7,97,75,54,58,48,42,75,45,17,29.56,29.18,13,2,13,0.00
2013-11-8,104,82,60,58,46,36,63,34,12,29.35,28.97,14,3,14,0.00
2013-11-9,100,81,68,57,50,43,57,37,17,29.35,28.94,21,4,21,0.00
2013-11-10,77,66,62,55,51,45,78,59,35,29.50,29.35,8,2,9,0.29
2013-11-11,68,64,60,64,58,54,87,81,76,29.50,29.38,10,2,10,0.88
2013-11-12,77,66,62,65,60,56,90,79,58,29.41,29.26,13,2,13,0.38
2013-11-13,90,75,62,61,49,33,87,50,15,29.44,29.18,17,3,17,0.00
2013-11-14,92,72,55,54,45,29,74,44,13,29.44,29.15,13,3,13,0.00
2013-11-15,85,71,62,57,52,46,75,54,32,29.44,29.24,12,3,12,0.00
2013-11-16,73,66,60,58,53,48,79,65,46,29.47,29.32,8,2,9,0.41
2013-11-17,63,61,59,57,54,52,85,79,72,29.47,29.38,7,1,7,1.21
2013-11-18,67,61,58,63,56,54,89,86,78,29.41,29.24,7,2,7,0.83
2013-11-19,78,68,61,65,59,56,91,75,51,29.35,29.18,8,1,8,0.00
2013-11-20,88,72,58,64,58,55,90,65,38,29.38,29.18,12,2,12,0.00
2013-11-21,90,74,61,65,60,56,88,63,38,29.35,29.12,15,3,15,0.00
2013-11-22,78,70,66,65,61,58,87,75,60,29.29,29.09,18,3,18,0.37
2013-11-23,72,67,62,68,61,57,92,84,70,29.15,29.00,7,1,7,0.13
2013-11-24,86,70,59,63,54,46,90,62,29,29.20,28.97,13,2,13,0.00
2013-11-25,85,67,60,60,54,48,82,63,33,29.41,29.12,8,2,8,0.08
2013-11-26,80,66,54,54,48,45,81,56,33,29.50,29.35,9,2,9,0.00
2013-11-27,86,69,52,56,49,42,81,53,23,29.59,29.29,9,2,9,0.00
2013-11-28,98,77,56,61,50,41,79,46,17,29.41,28.94,12,2,12,0.00
2013-11-29,75,69,61,64,57,49,80,66,44,29.35,28.94,8,2,9,0.41
2013-11-30,76,66,59,60,53,49,84,63,48,29.68,29.38,8,2,8,0.41
2013-12-1,76,64,55,58,52,48,83,65,42,29.74,29.59,13,2,13,0.00
2013-12-23,100,90,79,61,53,48,53,29,19,29.20,28.97,14,4,14,0.00
2013-12-24,78,71,68,63,60,58,77,69,57,29.56,29.24,7,1,7,0.00
2013-12-25,71,68,67,66,62,60,90,80,76,29.56,29.35,9,1,9,0.33
2013-12-26,88,75,68,68,62,55,89,68,34,29.35,29.12,9,2,9,0.04
2013-12-27,90,74,64,65,59,56,82,61,35,29.35,29.12,12,2,12,0.00
2013-12-28,90,76,66,64,61,57,78,62,39,29.35,29.00,10,2,10,0.00
2013-12-29,86,74,66,68,55,46,84,56,29,29.44,29.00,12,3,12,0.00
2013-12-30,87,73,63,58,52,50,71,50,30,29.44,29.18,12,3,12,0.00
2013-12-31,97,75,59,60,54,44,75,51,17,29.44,29.09,13,4,13,0.00
2014-1-1,95,79,67,65,60,53,78,55,28,29.44,29.12,9,2,9,0.00
2014-1-2,103,85,72,70,55,42,77,43,15,29.15,28.88,14,2,14,0.00